EHI
0 0 0 0 0 0 0 0 0 0 0 0 0 0 0 0 0 0 0 0 0 0 0 0 0 0 0 0 0 1 0 0 1 0 0 0 0 0 0 0 0 0 0 0
0 0 0 0 0 0 0 0 0 0 0 0 0 0 0 0 0 0 0 0 0 0 0 0 0 0 0 0 1 1 1 1 1 1 0 0 0 0 0 0 0 0 0 0
0 0 0 0 0 0 0 0 0 0 0 0 0 0 0 0 0 0 0 0 0 0 0 0 0 0 0 1 3 6 7 6 5 3 1 0 0 0 0 0 0 0 0 0
0 0 0 0 0 0 0 0 0 0 0 0 0 0 0 0 0 0 0 0 0 1 1 1 1 2 4 8 13 19 20 15 10 6 3 1 0 0 0 0 0 0 0 0
0 0 0 0 0 0 0 0 0 0 0 0 0 0 0 0 0 0 0 0 0 1 2 3 5 9 18 28 37 40 34 22 13 7 2 0 0 0 0 0 0 0 0 0
0 0 0 0 0 0 0 0 0 0 0 0 0 0 0 0 0 0 0 0 0 1 2 4 8 16 30 43 50 49 39 23 10 4 1 0 0 0 0 0 0 0 0 0
0 0 0 0 0 0 0 0 0 0 0 0 0 0 0 0 0 0 0 0 0 0 0 1 5 14 25 34 37 34 26 16 6 1 0 0 0 0 0 0 0 0 0 0
0 0 0 0 0 0 0 0 0 0 0 0 0 0 0 0 0 0 0 0 0 0 0 0 2 6 11 14 15 13 11 7 2 0 0 0 0 0 0 0 0 0 0 0
0 0 0 0 0 0 0 0 0 0 0 0 0 0 0 0 0 0 0 0 0 0 0 0 1 2 3 5 5 5 4 2 0 0 0 0 0 0 0 0 0 0 0 0
0 0 0 0 0 0 0 0 0 0 0 0 0 0 0 0 0 0 0 0 0 0 0 0 0 1 1 2 2 2 2 1 0 0 0 0 0 0 0 0 0 0 0 0
0 0 0 0 0 0 0 0 0 0 0 0 0 0 0 0 0 0 0 0 0 0 0 0 0 0 0 0 0 0 0 0 0 0 0 0 0 0 0 0 0 0 0 0
0 0 0 0 0 0 0 0 0 0 0 0 0 0 0 0 0 0 0 0 0 0 0 0 0 0 0 0 0 0 0 0 0 0 0 0 0 0 0 0 0 0 0 0
0 0 0 0 0 0 0 0 0 0 0 0 0 0 0 0 0 0 0 0 0 0 0 0 0 0 0 0 0 0 0 0 0 0 0 0 0 0 0 0 0 0 0 0
0 0 0 0 0 0 0 0 0 0 0 0 0 0 0 0 0 0 0 0 0 0 0 0 0 0 0 0 0 0 0 0 0 0 0 0 0 0 0 0 0 0 0 0
0 0 0 0 0 0 0 0 0 0 0 0 0 0 0 0 0 0 0 0 0 0 0 0 0 0 0 0 0 0 0 0 0 0 0 0 0 0 0 0 0 0 0 0
0 0 0 0 0 0 0 0 0 0 0 0 0 0 0 0 0 0 0 0 0 0 0 0 0 0 0 0 0 0 0 0 0 0 0 0 0 0 0 0 0 0 0 0
0 0 0 0 0 0 0 0 0 0 0 0 0 0 0 0 0 0 0 0 0 0 0 0 0 0 0 0 0 0 0 0 0 0 0 0 0 0 0 0 0 0 0 0
0 0 0 0 0 0 0 0 0 0 0 0 0 0 0 0 0 0 0 0 0 0 0 0 0 0 0 0 0 0 0 0 0 0 0 0 0 0 0 0 0 0 0 0
0 0 0 0 0 0 0 0 0 0 0 0 0 0 0 0 0 0 0 0 0 0 0 0 0 0 0 0 0 0 0 0 0 0 0 0 0 0 0 0 0 0 0 0
0 0 0 0 0 0 0 0 0 0 0 0 0 0 0 0 0 0 0 0 0 0 0 0 0 0 0 0 0 0 0 0 0 0 0 0 0 0 0 0 0 0 0 0
0 0 0 0 0 0 0 0 0 0 0 0 0 0 0 0 0 0 0 0 0 0 0 0 0 0 0 0 0 0 0 0 0 0 0 0 0 0 0 0 0 0 0 0
0 0 0 0 0 0 0 0 0 0 0 0 0 0 0 0 0 0 0 0 0 0 0 0 0 0 0 0 0 0 0 0 0 0 0 0 0 0 0 0 0 0 0 0
0 0 0 0 0 0 0 0 0 0 0 0 0 0 0 0 0 0 0 0 0 0 0 0 0 0 0 0 0 0 0 0 0 0 0 0 0 0 0 0 0 0 0 0
0 0 0 0 0 0 0 0 0 0 0 0 0 0 0 0 0 0 0 0 0 0 0 0 0 0 0 0 0 0 0 0 0 0 0 0 0 0 0 0 0 0 0 0
0 0 0 0 0 0 0 0 0 0 0 0 0 0 0 0 0 0 0 0 0 0 0 0 0 0 0 0 0 0 0 0 0 0 0 0 0 0 0 0 0 0 0 0
0 0 0 0 0 0 0 0 0 0 0 0 0 0 0 0 0 0 0 0 0 0 0 0 0 0 0 0 0 0 0 0 0 0 0 0 0 0 0 0 0 0 0 0
Wind_Speed
3 4 1 3 4 4 3 3 5 6 2 1 3 6 8 6 7 8 8 8 8 9 9 8 11 13 11 11 11 12 12 10 9 6 5 4 4 3 3 4 5 6 5 6
5 3 4 3 1 1 2 3 5 5 2 1 3 6 4 6 8 8 9 10 11 12 10 9 9 12 15 15 14 13 13 11 11 8 5 3 3 2 2 2 4 5 5 5
1 4 4 3 3 2 2 3 4 4 2 2 3 5 4 5 6 11 12 11 11 13 13 11 9 10 13 15 15 13 13 10 9 7 5 3 3 3 2 2 2 3 4 4
3 5 6 6 4 3 4 4 3 2 0 3 1 4 4 6 8 14 16 15 16 16 14 10 8 7 9 11 10 9 9 8 6 7 6 5 5 4 4 3 3 3 4 4
5 6 8 8 6 5 4 4 2 1 2 1 1 2 5 5 9 14 16 16 17 16 15 11 8 4 1 2 5 7 9 8 6 4 3 3 2 2 2 2 4 3 3 3
5 4 5 4 5 4 4 4 3 4 3 2 3 3 3 5 9 14 15 15 16 17 15 12 10 8 8 8 9 10 11 10 7 4 0 2 4 4 4 3 3 3 2 2
10 7 7 6 8 8 7 5 4 4 1 5 1 3 2 6 9 11 14 15 15 14 13 11 10 9 8 9 9 10 12 11 7 2 1 3 4 5 4 4 4 3 2 2
6 7 7 7 4 5 5 1 2 3 4 3 2 2 3 5 8 9 11 12 13 12 11 10 9 8 7 8 8 10 13 8 3 2 3 3 3 3 2 3 3 3 3 3
3 5 4 5 4 4 6 4 2 2 2 2 1 2 2 11 14 15 15 15 15 14 12 10 7 7 7 7 8 9 9 4 2 3 3 3 3 3 3 3 3 3 3 3
1 4 5 6 6 6 3 2 4 1 1 2 0 4 7 15 18 18 17 16 15 14 12 10 6 7 7 7 6 6 4 2 5 4 4 3 3 3 3 3 3 3 3 3
3 2 7 6 6 7 7 6 4 2 1 1 1 3 6 10 13 14 15 15 14 13 10 7 4 5 7 6 4 3 3 4 4 4 3 2 2 2 3 3 3 3 3 4
2 4 3 4 2 4 3 4 3 2 2 1 1 2 6 10 11 12 14 15 14 12 8 4 3 4 3 1 3 4 4 3 3 3 2 2 2 2 2 2 2 3 3 4
3 5 5 8 7 8 6 7 4 1 1 2 1 2 7 11 13 14 15 15 14 12 10 8 5 3 2 3 4 5 4 3 3 3 2 2 2 2 2 2 2 3 4 4
6 5 4 2 4 6 9 14 13 6 3 4 5 6 11 17 17 17 16 15 13 12 11 11 9 6 5 4 4 4 2 2 3 3 2 2 2 2 2 2 2 3 4 4
6 5 3 3 3 6 12 16 16 14 10 7 6 7 12 15 14 14 15 15 14 13 13 11 10 8 7 7 7 7 6 4 3 3 2 1 1 1 1 1 1 2 2 4
4 5 3 1 1 6 11 16 14 11 9 8 8 7 12 13 11 12 14 15 14 13 12 11 10 9 9 9 9 9 9 8 8 8 6 5 4 4 4 3 2 2 2 2
3 4 3 0 3 2 7 9 9 7 8 8 7 9 14 13 14 12 12 14 13 12 10 9 9 8 8 8 8 8 8 8 9 8 8 7 7 7 7 6 5 5 4 2
4 4 3 2 4 4 3 3 4 4 4 7 8 10 12 13 13 7 6 10 12 11 9 8 7 7 6 6 6 6 6 7 7 8 8 8 8 7 7 7 7 6 4 4
3 6 4 3 3 1 4 3 3 3 3 5 8 11 13 14 7 4 9 12 9 7 6 4 4 4 5 6 5 6 7 6 7 7 7 7 6 7 7 7 6 5 5 5
6 5 5 4 3 1 4 4 2 1 1 2 6 8 10 11 7 8 14 14 11 8 5 4 4 4 5 5 5 6 6 6 6 6 5 5 6 6 6 6 5 4 4 5
4 5 4 3 2 4 5 3 1 2 4 6 5 6 5 4 4 10 14 10 7 6 4 3 4 4 4 5 5 5 5 5 4 4 5 6 6 5 5 5 5 5 5 6
3 2 2 3 2 5 4 1 3 5 3 3 4 4 5 7 9 9 9 9 8 7 5 4 4 4 4 3 3 4 4 4 2 3 4 5 5 5 5 5 5 6 6 6
5 6 5 6 6 5 3 4 3 3 3 4 4 5 6 7 7 8 8 9 8 7 6 4 3 5 4 3 2 3 3 2 1 2 3 3 4 4 5 5 5 5 5 5
3 3 3 2 5 4 4 3 3 3 5 6 6 7 5 5 7 8 7 7 7 6 5 4 4 4 5 4 3 2 2 0 1 1 2 2 3 4 4 4 4 4 5 5
6 6 4 4 4 3 5 6 5 4 5 5 5 4 4 5 6 6 6 7 6 6 5 4 4 5 6 5 4 3 1 2 1 0 1 2 2 2 2 3 3 3 3 4
7 9 9 8 8 7 7 5 4 4 4 4 4 4 4 4 5 6 6 6 6 6 6 6 6 6 6 5 5 4 2 3 2 1 1 1 1 2 1 1 1 1 2 4
Wind_Direction
29 51 333 253 216 211 203 219 252 260 270 277 273 285 304 343 4 348 336 323 308 289 274 257 237 221 211 208 198 196 193 183 169 163 170 177 194 191 192 191 187 188 189 190
28 349 292 285 305 213 223 252 266 283 342 270 299 296 328 22 23 7 353 339 326 311 300 284 256 229 212 208 202 196 195 186 182 183 169 160 150 164 170 165 177 182 181 182
12 309 340 34 20 350 282 238 257 269 346 38 347 320 3 2 14 10 3 349 338 326 311 300 278 239 222 213 203 196 190 186 184 162 134 108 97 95 126 169 183 185 180 178
34 359 24 37 16 356 296 300 272 264 296 293 31 294 320 341 352 4 358 352 345 338 328 315 300 262 226 215 198 180 166 160 155 143 159 167 171 179 190 172 165 161 174 179
9 16 37 30 345 346 305 335 1 336 189 290 314 235 304 350 357 352 348 346 345 342 342 342 341 323 278 142 120 122 119 108 103 111 162 183 163 150 133 133 152 155 161 174
7 13 41 355 332 355 341 359 25 42 87 249 239 190 328 14 350 339 340 344 345 346 349 359 11 26 45 66 83 96 96 87 78 71 194 200 168 154 151 157 158 151 148 157
349 3 2 3 0 357 19 30 356 339 356 241 245 145 65 6 357 341 336 339 344 351 354 360 18 26 38 56 72 87 86 75 59 31 259 211 183 171 171 169 166 154 153 165
5 333 0 8 12 330 339 28 205 253 241 282 358 128 106 15 352 344 342 341 345 353 357 2 18 31 43 53 64 81 83 77 52 279 249 214 177 165 166 165 161 168 175 176
359 299 340 5 14 33 358 348 286 252 272 268 291 90 93 360 356 352 349 348 346 346 352 358 13 33 50 60 64 76 88 95 254 242 229 197 179 169 168 165 164 170 171 166
44 305 324 329 16 24 35 329 10 5 248 245 217 63 0 348 344 342 344 343 340 340 348 352 15 40 50 52 51 61 76 234 248 232 213 193 186 180 172 166 172 173 169 158
62 53 328 7 25 349 356 7 357 314 276 238 126 69 15 342 335 335 337 340 339 337 340 344 28 54 52 40 15 340 268 248 242 219 200 179 177 173 164 164 167 165 165 163
64 92 339 317 346 19 21 347 311 309 350 6 79 75 5 345 343 346 346 345 345 347 352 4 60 79 63 6 287 271 263 243 230 203 177 154 153 145 143 149 156 164 172 180
75 67 10 350 358 11 0 341 323 229 22 23 50 36 359 356 358 359 354 351 355 4 18 31 41 40 353 304 284 278 269 251 225 194 165 147 153 153 159 173 175 179 187 192
91 74 91 48 346 347 355 10 24 38 40 47 30 3 358 358 355 354 354 356 2 16 29 35 33 26 7 348 335 322 305 230 197 166 157 161 180 199 203 202 201 202 197 198
75 87 85 100 80 49 32 20 23 35 28 30 12 9 359 349 344 345 352 357 8 19 26 29 31 27 22 21 20 23 25 32 64 90 78 47 352 353 11 340 293 261 228 220
62 107 120 136 145 54 35 17 13 19 15 11 8 11 348 338 344 351 358 1 5 10 14 16 23 27 29 30 28 31 34 35 46 53 42 29 27 29 23 2 340 329 307 267
60 106 109 21 305 27 20 356 356 1 22 7 2 343 335 341 342 341 350 357 359 358 359 6 11 15 17 18 22 27 25 30 42 45 37 29 28 30 23 18 19 11 356 346
109 95 99 72 51 54 283 287 324 334 31 17 353 340 339 332 314 306 354 357 350 346 346 351 359 6 7 11 17 23 27 31 35 34 28 23 23 23 19 23 21 11 7 7
87 121 102 92 86 352 320 342 358 334 344 360 345 340 341 334 324 350 0 354 337 327 327 335 349 357 3 7 5 28 28 27 30 25 19 14 16 19 19 18 9 4 7 12
37 69 100 100 104 210 264 287 312 225 301 339 337 332 337 352 19 336 332 333 328 329 332 344 350 2 5 354 2 30 22 23 19 11 8 9 15 22 21 14 11 8 17 20
19 32 72 111 139 248 249 288 35 120 268 306 308 306 321 334 267 282 305 316 320 326 331 350 1 356 341 343 7 21 14 8 355 6 17 19 18 26 26 26 24 23 27 31
168 137 154 135 152 242 243 145 163 215 251 281 285 290 301 295 292 302 315 329 338 341 340 346 347 336 329 342 5 7 354 337 357 28 30 24 21 25 28 33 31 29 30 34
189 189 185 185 208 231 219 210 222 199 242 265 268 285 298 300 307 318 323 330 332 333 331 327 323 322 323 327 332 337 324 332 39 44 30 17 20 26 28 35 31 30 30 31
245 153 142 225 257 245 245 253 259 230 234 256 269 282 285 287 298 310 317 323 329 329 323 321 317 315 311 309 296 277 294 218 134 58 16 9 14 19 28 33 31 33 28 23
210 165 169 227 252 258 267 248 247 257 261 275 287 277 278 290 300 304 310 313 318 317 313 313 306 294 289 295 287 274 240 170 170 189 4 10 11 16 30 39 29 22 23 11
192 172 174 207 203 184 220 226 219 233 258 278 295 309 314 303 299 305 305 303 307 310 310 312 309 298 291 289 280 267 219 183 183 214 341 7 1 8 34 37 18 357 342 354